Home   Weather   Idaho Falls   Past weeks

Flag for USA Past Weather in Idaho Falls, Idaho, USA — Yesterday and Last 2 Weeks

Now
23 °F

Passing clouds.


Feels Like: 23 °F
Forecast: 21 / 31 °F
Wind: No wind

Location: Fanning Field

Current Time: Jan 22, 2017 at 5:19:28 am

Latest Report: Jan 22, 2017 at 3:53 am


Visibility: 10 mi

Pressure: 30.01 "Hg (25.01 "Hg at 1429m altitude)

Humidity: 96%

Dew Point: 22 °F

Location of Idaho FallsLocation

Past Weather in Idaho Falls — Graph

°F

Idaho Falls Temperature Yesterday

Maximum temperature yesterday: 30 °F (at 2:53 pm)
Minimum temperature yesterday: 20 °F (at 12:03 am)
Average temperature yesterday: 26 °F

High & Low Weather Summary for the Past Weeks

 TemperatureHumidityPressure
High38 °F (Jan 9, 9:53 am)100% (Jan 8, 5:53 pm)30.78 "Hg (Jan 8, 5:53 pm)
Low-15 °F (Jan 7, 3:53 am)72% (Jan 7, 3:53 pm)29.32 "Hg (Jan 21, 12:25 am)
Average17 °F90%30.07 "Hg
* Reported Jan 7 3:53 am — Jan 22 3:53 am, Idaho Falls, Weather by CustomWeather, © 2017

Note: Actual official high and low records may vary slightly from our data, if they occured in-between our weather recording intervals... More about our weather records

Advertising

Idaho Falls Weather History for the Previous 24 Hours

Scroll right to see more
 ConditionsComfort  
Time TempWeatherWind HumidityBarometerVisibility
3:53 am
Sun, Jan 22
23 °FPassing clouds.No wind96%30.01 "Hg10 mi
2:53 am23 °FOvercast.No wind96%30.01 "Hg10 mi
1:53 am20 °FPassing clouds.6 mph96%30.01 "Hg10 mi
1:08 am24 °FOvercast.8 mph96%29.89 "Hg10 mi
12:53 am24 °FMostly cloudy.9 mph96%29.97 "Hg10 mi
12:18 am23 °FPassing clouds.8 mph92%29.87 "Hg10 mi
11:53 pm
Sat, Jan 21
22 °FClear.16 mph92%29.95 "Hg10 mi
10:53 pm26 °FClear.15 mph88%29.93 "Hg10 mi
9:53 pm27 °FOvercast.12 mph89%29.89 "Hg10 mi
9:05 pm28 °FMostly cloudy.13 mph89%29.80 "Hg10 mi
8:53 pm28 °FPassing clouds.15 mph89%29.88 "Hg10 mi
7:53 pm29 °FMostly cloudy.10 mph93%29.84 "Hg10 mi
6:53 pm28 °FMostly cloudy.15 mph96%29.81 "Hg10 mi
5:57 pm30 °FOvercast.17 mph92%29.71 "Hg10 mi
4:53 pm30 °FOvercast.13 mph92%29.74 "Hg10 mi
3:53 pm30 °FMostly cloudy.12 mph89%29.70 "Hg10 mi
2:53 pm30 °FMostly cloudy.10 mph92%29.66 "Hg9 mi
1:53 pm29 °FLow clouds.12 mph93%29.64 "Hg8 mi
12:53 pm29 °FIce fog.14 mph93%29.61 "Hg6 mi
11:53 am29 °FLow clouds.12 mph93%29.59 "Hg10 mi
10:53 am28 °FOvercast.6 mph89%29.57 "Hg10 mi
9:53 am28 °FOvercast.No wind85%29.53 "Hg10 mi
8:53 am26 °FOvercast.3 mph88%29.53 "Hg10 mi
7:53 am26 °FOvercast.No wind88%29.48 "Hg10 mi
6:53 am25 °FOvercast.No wind92%29.46 "Hg10 mi
6:31 am25 °FOvercast.No wind88%29.33 "Hg10 mi
5:53 am25 °FOvercast.5 mph88%29.45 "Hg10 mi
Weather by CustomWeather, © 2017

See weather overviewHow to use our weather pages